Location: Basin
(44.3800°N, 108.0380°W)
Time: 20:05:42
(UTC-06:00)

Envisat - Visible Passes

Search period start: 20 October 2019 00:00
Search period end: 30 October 2019 00:00
Orbit: 764 x 766 km, 98.1° (Epoch: 20 October)

Date Brightness Start Highest point End Pass type
(mag) Time Alt. Az. Time Alt. Az. Time Alt. Az.
20 Oct 6.1 06:57:45 10° NE 07:01:01 17° E 07:04:16 10° SE visible
20 Oct 4.4 19:51:53 10° SSW 19:56:39 40° W 20:01:26 10° NNW visible
21 Oct 3.0 19:14:42 10° SSE 19:19:46 87° WSW 19:24:54 10° NNW visible
21 Oct 6.3 20:58:26 10° W 20:59:32 11° W 21:00:37 10° WNW visible
22 Oct 3.3 18:38:19 10° SE 18:43:07 44° ENE 18:47:56 10° N visible
22 Oct 5.3 20:18:16 10° SSW 20:22:19 24° W 20:26:24 10° NW visible
23 Oct 6.3 06:47:11 10° ENE 06:49:37 13° E 06:52:02 10° ESE visible
23 Oct 3.9 19:40:24 10° S 19:45:19 51° W 19:50:17 10° NNW visible
24 Oct 2.9 19:03:28 10° SSE 19:08:31 76° ENE 19:13:36 10° N visible
24 Oct 6.1 20:45:33 10° WSW 20:48:07 14° W 20:50:40 10° WNW visible
25 Oct 5.9 07:11:23 10° NE 07:15:24 23° E 07:19:24 10° SE visible
25 Oct 5.0 20:06:34 10° SSW 20:10:58 30° W 20:15:24 10° NW visible
26 Oct 6.7 06:37:31 10° ENE 06:38:11 10° E 06:38:52 10° E visible
26 Oct 3.5 19:29:00 10° S 19:34:01 64° WSW 19:39:05 10° NNW visible
27 Oct 3.0 18:52:18 10° SSE 18:57:17 61° ENE 19:02:18 10° N visible
27 Oct 5.8 20:33:22 10° SW 20:36:43 17° W 20:40:04 10° NW visible
28 Oct 6.0 07:00:31 10° NE 07:04:02 19° E 07:07:32 10° SE visible
28 Oct 4.5 19:54:57 10° SSW 19:59:38 37° W 20:04:20 10° NNW visible
29 Oct 3.1 19:17:40 10° S 19:22:45 80° WSW 19:27:51 10° NNW visible
